Rechercher aéroport 
image banner adimage banner adimage banner ad
image banner ad

CL76 - U S Naval Hospital San Diego

Situé à San Diego, United States

ICAO - CL76, IATA -

Données fournies par Airmate  

Information générale

Coordonnées: N32°43'30" W117°8'39"
Élévation : 200 feet MSL.
Variation magnétique : 13° East
Voir autres Aéroports à California

Données opérationnelles

Special qualification required
Heure actuelle UTC:
Heure actuelle locale:
Météo à : KSAN - San Diego Intl ( 4 km )
METAR: KSAN 231451Z 32006KT 10SM FEW008 SCT120 22/18 A2994 RMK AO2 SLP137 T02170178 53003
TAF: KSAN 231447Z 2315/2418 31003KT P6SM SCT007 BKN120 FM231800 30010KT P6SM SCT120 FM240200 31004KT P6SM FEW008 SCT120 FM240900 32003KT 5SM BR BKN007 FM241700 28006KT P6SM FEW010 BKN100
Voir NOTAMs / SUP AIP / TFR affectant cet aéroport [VIEW]
Fréquences de communication: [VIEW]

Pistes:

Coordonnées de l'aéroport

Adresse: San Diego United States

Vue satellite de CL76